{"data":{"norad_id":67305,"intl_designator":"2026-002A","name":"STARLINK-36490","alt_names":[],"object_type":"PAYLOAD","status":"ACTIVE","operator":null,"country":"US","launch_date":"2026-01-04","launch_site_code":"AFETR","launch_vehicle":null,"mission":null,"orbit_class":"UNKNOWN","rcs_meters":null,"size_class":null,"mass_kg":null,"dimensions":null,"purposes":["comms"],"wikipedia_slug":null,"has_3d_model":false,"image_url":null,"decayed_at":null,"tle_current":{"epoch":"2026-05-25T00:06:25.686144Z","epoch_age_seconds":70800,"freshness":"FRESH","line1":"1 67305U 26002A   26145.00446396  .00011677  00000+0  43313-3 0  9999","line2":"2 67305  43.0002 253.9908 0001282 277.3801  82.6905 15.27585069 22810","mean_motion":15.27585069,"eccentricity":0.0001282,"inclination_deg":43.0002,"raan_deg":253.9908,"arg_perigee_deg":277.3801,"mean_anomaly_deg":82.6905,"bstar":0.00043313,"rev_number":2281,"period_min":94.266435907407,"perigee_km":482.15431556042,"apogee_km":483.91351978371,"semimajor_km":6861.1709176721,"source":"CELESTRAK","updated_at":"2026-05-25T13:38:21.514127Z"}}}